JCSAT-3A

Last updated on Sat Jun 14 2025 00:02:43 GMT+0000 (Coordinated Universal Time)

1 29272U 06033A 25164.55878149 -.00000330 00000+0 00000+0 0 9994 2 29272 0.0316 68.1550 0002660 28.1574 134.9673 1.00271536 44040
UTC large
Height (km)
Speed (km/s)
/
Latitude / Longitude
Inclination (degrees)
Orbital Period (minutes)
Azimuth
Elevation
Range (km)
Doppler Factor

Next 0 passes for location: London (51.5072 / 0.1276)

Sorry there are no passes over London.